This demonstration page uses our WeatherBlox Daily Observations layout. Learn more.

Left ArrowRight Arrow

39.51506, -84.39828

Hourly Observations for September 12, 2020

Temp ( °F °C ) Dew Point ( °F °C ) Humidity (%) Winds ( mph kmh ) Pressure ( in mb ) Visibility ( mi km ) Precip ( " mm )
12:15 am 00:15 Cloudy 68 20.1 62 16.7 81 81 E 9 15 30.17 1022 10 16.0934 0 0
12:35 am 00:35 Cloudy 68 20 62 16.7 81 81 E 6 9 30.16 1021 10 16.0934 0 0
12:55 am 00:55 Cloudy 68 19.9 62 16.7 82 82 E 6 9 30.16 1021 10 16.0934 0 0
1:15 am 01:15 Cloudy 68 19.8 62 16.7 82 82 E 8 13 30.16 1021 10 16.0934 0 0
1:35 am 01:35 Cloudy 67 19.6 62 16.6 83 83 ENE 6 9 30.16 1021 10 16.0934 0 0
1:55 am 01:55 Cloudy 67 19.5 62 16.6 83 83 E 7 11 30.15 1021 10 16.0934 0 0
2:15 am 02:15 Cloudy 67 19.4 62 16.6 84 84 E 6 9 30.14 1021 10 16.0934 0 0
2:35 am 02:35 Cloudy 67 19.2 62 16.5 84 84 E 7 11 30.14 1021 10 16.0934 0 0
2:55 am 02:55 Clear 65 18.2 61 16.2 88 88 ENE 3 6 30.13 1020 10 16.0934 0 0
3:15 am 03:15 Clear 64 17.9 61 16.1 89 89 ENE 5 7 30.13 1020 10 16.0934 0 0
3:35 am 03:35 Clear 63 17.3 61 15.9 92 92 ENE 3 6 30.12 1020 10 16.0934 0 0
3:55 am 03:55 Clear 63 17.4 61 16 92 92 NE 5 7 30.11 1020 10 16.0934 0 0
4:15 am 04:15 Clear 62 16.9 61 15.9 94 94 Calm 30.1 1019 10 16.0934 0 0
4:35 am 04:35 Clear 61 16.3 60 15.6 96 96 Calm 30.09 1019 10 16.0934 0 0
4:55 am 04:55 Clear 61 16.2 60 15.5 96 96 Calm 30.08 1019 10 16.0934 0 0
5:15 am 05:15 Clear 61 16.2 60 15.7 97 97 Calm 30.08 1019 10 16.0934 0 0
5:35 am 05:35 Clear 59 15.2 59 15.2 100 100 Calm 30.09 1019 7 11.26538 0 0
5:55 am 05:55 Clear 59 15.2 59 15.2 100 100 Calm 30.09 1019 7 11.26538 0 0
6:15 am 06:15 Hazy 59 15 N/A N/A Calm 30.09 1019 5 8.0467 0 0
6:35 am 06:35 Clear 59 15 N/A N/A Calm 30.08 1019 10 16.0934 0 0
6:55 am 06:55 Partly Cloudy 59 15.2 59 15.1 99 99 N 3 6 30.08 1018 10 16.0934 0 0
7:15 am 07:15 Partly Cloudy 60 15.3 59 15.1 99 99 Calm 30.08 1018 10 16.0934 0 0
7:35 am 07:35 Sunny 60 15.4 59 15.1 98 98 Calm 30.08 1018 10 16.0934 0 0
7:55 am 07:55 Sunny 60 15.8 60 15.4 97 97 Calm 30.07 1018 10 16.0934 0 0
8:15 am 08:15 Sunny 62 16.6 61 16 96 96 Calm 30.07 1018 10 16.0934 0 0
8:35 am 08:35 Partly Cloudy 63 17.4 61 16 92 92 Calm 30.07 1018 10 16.0934 0 0
8:55 am 08:55 Mostly Cloudy 64 17.6 61 16 90 90 Calm 30.07 1018 10 16.0934 0 0
9:15 am 09:15 Mostly Cloudy 65 18.5 61 16.2 87 87 Calm 30.07 1018 10 16.0934 0 0
9:35 am 09:35 Sunny 67 19.7 62 16.6 82 82 SE 3 6 30.06 1018 10 16.0934 0 0
9:55 am 09:55 Sunny 69 20.8 63 17.1 79 79 SE 3 6 30.05 1018 10 16.0934 0 0
10:15 am 10:15 Sunny 71 21.6 64 17.6 78 78 SSE 7 11 30.06 1018 10 16.0934 0 0
10:35 am 10:35 Sunny 72 22 64 17.6 76 76 SSW 6 9 30.06 1018 10 16.0934 0 0
10:55 am 10:55 Sunny 73 23 65 18.2 74 74 S 7 11 30.06 1018 10 16.0934 0 0
11:15 am 11:15 Sunny 75 23.8 65 18.5 72 72 SSW 7 11 30.05 1017 10 16.0934 0 0
11:35 am 11:35 Sunny 76 24.3 66 18.8 71 71 SSW 7 11 30.04 1017 10 16.0934 0 0
11:55 am 11:55 Sunny 77 25.2 66 19 69 69 S 5 7 30.04 1017 10 16.0934 0 0
12:15 pm 12:15 Sunny 78 25.3 67 19.2 69 69 SW 9 15 30.03 1017 10 16.0934 0 0
12:35 pm 12:35 Sunny 78 25.8 67 19.3 67 67 WSW 7 11 30.03 1017 10 16.0934 0 0
12:55 pm 12:55 Sunny 80 26.4 67 19.6 66 66 WSW 9 15 30.02 1017 10 16.0934 0 0
1:15 pm 13:15 Sunny 80 26.8 68 19.9 66 66 SSW 8 13 30.02 1017 10 16.0934 0 0
1:35 pm 13:35 Sunny 82 27.5 68 19.8 63 63 S 10 17 30.01 1016 10 16.0934 0 0
1:55 pm 13:55 Sunny 82 27.8 68 20 63 63 SW 9 15 30 1016 10 16.0934 0 0
2:15 pm 14:15 Sunny 83 28.5 68 20.1 60 60 SSW 9 15 29.99 1015 10 16.0934 0 0
2:35 pm 14:35 Sunny 85 29.2 68 20.1 58 58 S 9 15 29.97 1015 10 16.0934 0 0
2:55 pm 14:55 Sunny 86 29.9 69 20.3 56 56 S 8 13 29.96 1015 10 16.0934 0 0
3:15 pm 15:15 Sunny 86 30 69 20.3 56 56 SSW 6 9 29.95 1014 10 16.0934 0 0
3:35 pm 15:35 Sunny 86 30.2 69 20.3 55 55 SSW 7 11 29.94 1014 10 16.0934 0 0
3:55 pm 15:55 Sunny 87 30.4 69 20.4 55 55 S 6 9 29.94 1014 10 16.0934 0 0
4:15 pm 16:15 Sunny 87 30.8 69 20.4 54 54 SSW 9 15 29.93 1014 10 16.0934 0 0
4:35 pm 16:35 Partly Cloudy 87 30.8 69 20.7 55 55 S 9 15 29.93 1014 7 11.26538 0 0
4:55 pm 16:55 Partly Cloudy 86 30 69 20.8 58 58 SSW 7 11 29.92 1013 10 16.0934 0 0
5:15 pm 17:15 Partly Cloudy 86 30 70 21.1 59 59 SW 9 15 29.92 1013 10 16.0934 0 0
5:35 pm 17:35 Partly Cloudy 85 29.4 70 21 61 61 SW 6 9 29.91 1013 10 16.0934 0 0
5:55 pm 17:55 Partly Cloudy 86 30 70 21.1 59 59 S 7 11 29.91 1013 10 16.0934 0 0
6:15 pm 18:15 Partly Cloudy 85 29.3 70 21.1 61 61 S 7 11 29.91 1013 10 16.0934 0 0
6:35 pm 18:35 Partly Cloudy 84 29.1 71 21.4 63 63 SSW 7 11 29.92 1013 10 16.0934 0 0
6:55 pm 18:55 Partly Cloudy 83 28.4 71 21.7 67 67 SW 6 9 29.94 1014 10 16.0934 0 0
7:15 pm 19:15 Sunny 82 27.7 71 21.7 70 70 SW 5 7 29.94 1014 10 16.0934 0 0
7:35 pm 19:35 Sunny 81 27.4 71 21.7 71 71 SW 5 7 29.94 1014 10 16.0934 0 0
7:55 pm 19:55 Clear 80 26.5 71 21.9 76 76 WSW 5 7 29.94 1014 10 16.0934 0 0
8:15 pm 20:15 Clear 78 25.7 72 22 80 80 Calm 29.94 1014 10 16.0934 0 0
8:35 pm 20:35 Clear 76 24.5 72 22.2 87 87 WSW 3 6 29.94 1014 10 16.0934 0 0
8:55 pm 20:55 Clear 79 25.9 72 22.3 81 81 S 5 7 29.95 1014 10 16.0934 0 0
9:15 pm 21:15 Clear 76 24.7 72 22.3 87 87 SW 3 6 29.95 1014 10 16.0934 0 0
9:35 pm 21:35 Clear 76 24.3 72 22.3 89 89 WSW 3 6 29.96 1015 10 16.0934 0 0
9:55 pm 21:55 Clear 75 24.1 72 22.3 90 90 Calm 29.97 1015 10 16.0934 0 0
10:15 pm 22:15 Partly Cloudy 76 24.2 72 22.3 89 89 Calm 29.96 1015 10 16.0934 0 0
10:35 pm 22:35 Clear 76 24.7 72 22.4 87 87 W 3 6 29.95 1014 10 16.0934 0 0
10:55 pm 22:55 Clear with Light Rain 77 24.9 73 22.9 89 89 S 5 7 29.95 1014 10 16.0934 0 0
11:15 pm 23:15 Clear 76 24.5 73 23 91 91 SW 3 6 29.96 1015 10 16.0934 0 0
11:35 pm 23:35 Partly Cloudy with Drizzle 77 24.8 74 23.2 91 91 SW 3 6 29.96 1015 10 16.0934 0 0
11:55 pm 23:55 Mostly Cloudy 78 25.3 74 23.4 89 89 Calm 29.96 1015 10 16.0934 0 0

Powered by AerisWeather